owner,sensor,date,latitude,longitude,relative_humidity,qcFlag 
DISL,ioos:station:DISL:CATA:1,2019-01-01T06:47:00Z,30.3085,-88.1395,99.1,1111122 
DISL,ioos:station:DISL:CATA:1,2019-01-01T07:47:00Z,30.3085,-88.1395,99.2,1111122 
DISL,ioos:station:DISL:CATA:1,2019-01-01T08:48:00Z,30.3085,-88.1395,99.3,1111122 
DISL,ioos:station:DISL:CATA:1,2019-01-01T09:48:00Z,30.3085,-88.1395,99.3,1111122 
DISL,ioos:station:DISL:CATA:1,2019-01-01T10:48:00Z,30.3085,-88.1395,99.2,1111122 
DISL,ioos:station:DISL:CATA:1,2019-01-01T11:48:00Z,30.3085,-88.1395,99.3,1111122 
DISL,ioos:station:DISL:CATA:1,2019-01-01T12:48:00Z,30.3085,-88.1395,99.2,1111122 
DISL,ioos:station:DISL:CATA:1,2019-01-01T13:48:00Z,30.3085,-88.1395,99.2,1111122 
DISL,ioos:station:DISL:CATA:1,2019-01-01T14:48:00Z,30.3085,-88.1395,99.2,1111122 
DISL,ioos:station:DISL:CATA:1,2019-01-01T15:48:00Z,30.3085,-88.1395,99.2,1111122 
DISL,ioos:station:DISL:CATA:1,2019-01-01T16:48:00Z,30.3085,-88.1395,99.3,1111122 
DISL,ioos:station:DISL:CATA:1,2019-01-01T17:48:00Z,30.3085,-88.1395,99.3,1111122 
DISL,ioos:station:DISL:CATA:1,2019-01-01T18:48:00Z,30.3085,-88.1395,99.2,1111122 
DISL,ioos:station:DISL:CATA:1,2019-01-01T19:48:00Z,30.3085,-88.1395,99.2,1111122 
DISL,ioos:station:DISL:CATA:1,2019-01-01T20:48:00Z,30.3085,-88.1395,99.2,1111122 
DISL,ioos:station:DISL:CATA:1,2019-01-01T21:48:00Z,30.3085,-88.1395,99.3,1111122 
DISL,ioos:station:DISL:CATA:1,2019-01-01T22:48:00Z,30.3085,-88.1395,99.3,1111122 
DISL,ioos:station:DISL:CATA:1,2019-01-01T23:48:00Z,30.3085,-88.1395,99.2,1111122 
DISL,ioos:station:DISL:CATA:1,2019-01-02T00:48:00Z,30.3085,-88.1395,99.2,1111122 
DISL,ioos:station:DISL:CATA:1,2019-01-02T01:48:00Z,30.3085,-88.1395,99.3,1111122 
DISL,ioos:station:DISL:CATA:1,2019-01-02T02:48:00Z,30.3085,-88.1395,99.2,1111122 
DISL,ioos:station:DISL:CATA:1,2019-01-02T03:48:00Z,30.3085,-88.1395,96.9,1111122 
DISL,ioos:station:DISL:CATA:1,2019-01-02T04:48:00Z,30.3085,-88.1395,96.9,1111122 
DISL,ioos:station:DISL:CATA:1,2019-01-02T05:48:00Z,30.3085,-88.1395,97.2,1111122 
DISL,ioos:station:DISL:CATA:1,2019-01-02T06:48:00Z,30.3085,-88.1395,95.1,1111122 
DISL,ioos:station:DISL:CATA:1,2019-01-02T07:48:00Z,30.3085,-88.1395,94.9,1111122 
DISL,ioos:station:DISL:CATA:1,2019-01-02T08:48:00Z,30.3085,-88.1395,96.1,1111122 
DISL,ioos:station:DISL:CATA:1,2019-01-02T09:48:00Z,30.3085,-88.1395,96.3,1111122 
DISL,ioos:station:DISL:CATA:1,2019-01-02T10:48:00Z,30.3085,-88.1395,96.7,1111122 
DISL,ioos:station:DISL:CATA:1,2019-01-02T11:48:00Z,30.3085,-88.1395,96.2,1111122 
DISL,ioos:station:DISL:CATA:1,2019-01-02T12:48:00Z,30.3085,-88.1395,98.0,1111122 
DISL,ioos:station:DISL:CATA:1,2019-01-02T13:48:00Z,30.3085,-88.1395,98.7,1111122 
DISL,ioos:station:DISL:CATA:1,2019-01-02T14:48:00Z,30.3085,-88.1395,99.0,1111122 
DISL,ioos:station:DISL:CATA:1,2019-01-02T15:48:00Z,30.3085,-88.1395,99.2,1111122 
DISL,ioos:station:DISL:CATA:1,2019-01-02T16:48:00Z,30.3085,-88.1395,99.1,1111122 
DISL,ioos:station:DISL:CATA:1,2019-01-02T17:48:00Z,30.3085,-88.1395,99.2,1111122 
DISL,ioos:station:DISL:CATA:1,2019-01-02T18:48:00Z,30.3085,-88.1395,99.2,1111122 
DISL,ioos:station:DISL:CATA:1,2019-01-02T19:48:00Z,30.3085,-88.1395,99.2,1111122 
DISL,ioos:station:DISL:CATA:1,2019-01-02T20:48:00Z,30.3085,-88.1395,99.3,1111122 
DISL,ioos:station:DISL:CATA:1,2019-01-02T21:48:00Z,30.3085,-88.1395,99.3,1111122 
DISL,ioos:station:DISL:CATA:1,2019-01-02T22:48:00Z,30.3085,-88.1395,99.3,1111122 
DISL,ioos:station:DISL:CATA:1,2019-01-02T23:48:00Z,30.3085,-88.1395,99.3,1111122 
DISL,ioos:station:DISL:CATA:1,2019-01-03T00:48:00Z,30.3085,-88.1395,99.2,1111122 
DISL,ioos:station:DISL:CATA:1,2019-01-03T01:48:00Z,30.3085,-88.1395,99.2,1111122 
DISL,ioos:station:DISL:CATA:1,2019-01-03T02:48:00Z,30.3085,-88.1395,99.2,1111122 
DISL,ioos:station:DISL:CATA:1,2019-01-03T03:48:00Z,30.3085,-88.1395,99.2,1111122 
DISL,ioos:station:DISL:CATA:1,2019-01-03T04:48:00Z,30.3085,-88.1395,99.2,1111122 
DISL,ioos:station:DISL:CATA:1,2019-01-03T05:48:00Z,30.3085,-88.1395,99.2,1111122 
DISL,ioos:station:DISL:CATA:1,2019-01-03T06:48:00Z,30.3085,-88.1395,99.2,1111122 
DISL,ioos:station:DISL:CATA:1,2019-01-03T07:48:00Z,30.3085,-88.1395,99.2,1111122 
DISL,ioos:station:DISL:CATA:1,2019-01-03T08:48:00Z,30.3085,-88.1395,99.3,1111122 
DISL,ioos:station:DISL:CATA:1,2019-01-03T09:48:00Z,30.3085,-88.1395,99.2,1111122 
DISL,ioos:station:DISL:CATA:1,2019-01-03T10:48:00Z,30.3085,-88.1395,99.2,1111122 
DISL,ioos:station:DISL:CATA:1,2019-01-03T11:48:00Z,30.3085,-88.1395,99.2,1111122 
DISL,ioos:station:DISL:CATA:1,2019-01-03T12:48:00Z,30.3085,-88.1395,99.2,1111122 
DISL,ioos:station:DISL:CATA:1,2019-01-03T13:48:00Z,30.3085,-88.1395,99.2,1111122 
DISL,ioos:station:DISL:CATA:1,2019-01-03T14:48:00Z,30.3085,-88.1395,99.2,1111122 
DISL,ioos:station:DISL:CATA:1,2019-01-03T15:48:00Z,30.3085,-88.1395,94.2,1111122 
DISL,ioos:station:DISL:CATA:1,2019-01-03T16:48:00Z,30.3085,-88.1395,93.2,1111122 
DISL,ioos:station:DISL:CATA:1,2019-01-03T17:48:00Z,30.3085,-88.1395,94.1,1111122 
DISL,ioos:station:DISL:CATA:1,2019-01-03T18:48:00Z,30.3085,-88.1395,95.4,1111122 
DISL,ioos:station:DISL:CATA:1,2019-01-03T19:48:00Z,30.3085,-88.1395,95.3,1111122 
DISL,ioos:station:DISL:CATA:1,2019-01-03T20:48:00Z,30.3085,-88.1395,94.9,1111122 
DISL,ioos:station:DISL:CATA:1,2019-01-03T21:48:00Z,30.3085,-88.1395,95.0,1111122 
DISL,ioos:station:DISL:CATA:1,2019-01-03T22:48:00Z,30.3085,-88.1395,94.8,1111122 
DISL,ioos:station:DISL:CATA:1,2019-01-03T23:48:00Z,30.3085,-88.1395,94.1,1111122 
DISL,ioos:station:DISL:CATA:1,2019-01-04T00:48:00Z,30.3085,-88.1395,96.7,1111122 
DISL,ioos:station:DISL:CATA:1,2019-01-04T01:48:00Z,30.3085,-88.1395,98.4,1111122 
DISL,ioos:station:DISL:CATA:1,2019-01-04T02:48:00Z,30.3085,-88.1395,98.7,1111122 
DISL,ioos:station:DISL:CATA:1,2019-01-04T03:48:00Z,30.3085,-88.1395,98.7,1111122 
DISL,ioos:station:DISL:CATA:1,2019-01-04T04:48:00Z,30.3085,-88.1395,98.4,1111122 
DISL,ioos:station:DISL:CATA:1,2019-01-04T05:48:00Z,30.3085,-88.1395,98.8,1111122 
DISL,ioos:station:DISL:CATA:1,2019-01-04T06:48:00Z,30.3085,-88.1395,99.2,1111122 
DISL,ioos:station:DISL:CATA:1,2019-01-04T07:48:00Z,30.3085,-88.1395,91.4,1111122 
DISL,ioos:station:DISL:CATA:1,2019-01-04T08:48:00Z,30.3085,-88.1395,86.3,1111122 
DISL,ioos:station:DISL:CATA:1,2019-01-04T09:48:00Z,30.3085,-88.1395,85.2,1111122 
DISL,ioos:station:DISL:CATA:1,2019-01-04T10:48:00Z,30.3085,-88.1395,81.1,1111122 
DISL,ioos:station:DISL:CATA:1,2019-01-04T11:48:00Z,30.3085,-88.1395,78.04,1111122 
DISL,ioos:station:DISL:CATA:1,2019-01-04T12:48:00Z,30.3085,-88.1395,77.37,1111122 
DISL,ioos:station:DISL:CATA:1,2019-01-04T13:48:00Z,30.3085,-88.1395,70.78,1111122 
DISL,ioos:station:DISL:CATA:1,2019-01-04T14:48:00Z,30.3085,-88.1395,68.11,1111122 
DISL,ioos:station:DISL:CATA:1,2019-01-04T15:48:00Z,30.3085,-88.1395,65.16,1111122 
DISL,ioos:station:DISL:CATA:1,2019-01-04T16:48:00Z,30.3085,-88.1395,59.07,1111122 
DISL,ioos:station:DISL:CATA:1,2019-01-04T17:48:00Z,30.3085,-88.1395,57.88,1111122 
DISL,ioos:station:DISL:CATA:1,2019-01-04T18:48:00Z,30.3085,-88.1395,60.82,1111122 
DISL,ioos:station:DISL:CATA:1,2019-01-04T19:48:00Z,30.3085,-88.1395,53.48,1111122 
DISL,ioos:station:DISL:CATA:1,2019-01-04T20:48:00Z,30.3085,-88.1395,62.94,1111122 
DISL,ioos:station:DISL:CATA:1,2019-01-04T21:48:00Z,30.3085,-88.1395,60.54,1111122 
DISL,ioos:station:DISL:CATA:1,2019-01-04T22:48:00Z,30.3085,-88.1395,59.62,1111122 
DISL,ioos:station:DISL:CATA:1,2019-01-04T23:48:00Z,30.3085,-88.1395,55.48,1111122 
DISL,ioos:station:DISL:CATA:1,2019-01-05T00:48:00Z,30.3085,-88.1395,63.96,1111122 
DISL,ioos:station:DISL:CATA:1,2019-01-05T01:48:00Z,30.3085,-88.1395,67.11,1111122 
DISL,ioos:station:DISL:CATA:1,2019-01-05T02:48:00Z,30.3085,-88.1395,67.18,1111122 
DISL,ioos:station:DISL:CATA:1,2019-01-05T03:48:00Z,30.3085,-88.1395,70.78,1111122 
DISL,ioos:station:DISL:CATA:1,2019-01-05T04:48:00Z,30.3085,-88.1395,70.53,1111122 
DISL,ioos:station:DISL:CATA:1,2019-01-05T05:48:00Z,30.3085,-88.1395,75.78,1111122 
DISL,ioos:station:DISL:CATA:1,2019-01-05T06:48:00Z,30.3085,-88.1395,75.64,1111122 
DISL,ioos:station:DISL:CATA:1,2019-01-05T07:48:00Z,30.3085,-88.1395,76.74,1111122 
DISL,ioos:station:DISL:CATA:1,2019-01-05T08:48:00Z,30.3085,-88.1395,76.3,1111122 
DISL,ioos:station:DISL:CATA:1,2019-01-05T09:48:00Z,30.3085,-88.1395,76.19,1111122 
DISL,ioos:station:DISL:CATA:1,2019-01-05T10:48:00Z,30.3085,-88.1395,73.89,1111122 
DISL,ioos:station:DISL:CATA:1,2019-01-05T11:48:00Z,30.3085,-88.1395,78.49,1111122 
DISL,ioos:station:DISL:CATA:1,2019-01-05T12:48:00Z,30.3085,-88.1395,79.42,1111122 
DISL,ioos:station:DISL:CATA:1,2019-01-05T13:48:00Z,30.3085,-88.1395,81.8,1111122 
DISL,ioos:station:DISL:CATA:1,2019-01-05T14:48:00Z,30.3085,-88.1395,78.33,1111122 
DISL,ioos:station:DISL:CATA:1,2019-01-05T15:48:00Z,30.3085,-88.1395,65.09,1111122 
DISL,ioos:station:DISL:CATA:1,2019-01-05T16:48:00Z,30.3085,-88.1395,58.45,1111122 
DISL,ioos:station:DISL:CATA:1,2019-01-05T17:48:00Z,30.3085,-88.1395,58.83,1111122 
DISL,ioos:station:DISL:CATA:1,2019-01-05T18:48:00Z,30.3085,-88.1395,60.7,1111122 
DISL,ioos:station:DISL:CATA:1,2019-01-05T19:48:00Z,30.3085,-88.1395,67.4,1111122 
DISL,ioos:station:DISL:CATA:1,2019-01-05T20:48:00Z,30.3085,-88.1395,65.41,1111122 
DISL,ioos:station:DISL:CATA:1,2019-01-05T21:48:00Z,30.3085,-88.1395,60.58,1111122 
DISL,ioos:station:DISL:CATA:1,2019-01-05T22:48:00Z,30.3085,-88.1395,66.78,1111122 
DISL,ioos:station:DISL:CATA:1,2019-01-05T23:48:00Z,30.3085,-88.1395,71.12,1111122 
DISL,ioos:station:DISL:CATA:1,2019-01-06T00:48:00Z,30.3085,-88.1395,69.92,1111122 
DISL,ioos:station:DISL:CATA:1,2019-01-06T01:48:00Z,30.3085,-88.1395,76.71,1111122 
DISL,ioos:station:DISL:CATA:1,2019-01-06T16:48:00Z,30.3085,-88.1395,71.55,1111122 
DISL,ioos:station:DISL:CATA:1,2019-01-06T17:48:00Z,30.3085,-88.1395,71.23,1111122 
DISL,ioos:station:DISL:CATA:1,2019-01-06T18:48:00Z,30.3085,-88.1395,64.26,1111122 
DISL,ioos:station:DISL:CATA:1,2019-01-06T19:48:00Z,30.3085,-88.1395,51.44,1111122 
DISL,ioos:station:DISL:CATA:1,2019-01-06T20:48:00Z,30.3085,-88.1395,56.72,1111122 
DISL,ioos:station:DISL:CATA:1,2019-01-06T21:48:00Z,30.3085,-88.1395,56.93,1111122 
DISL,ioos:station:DISL:CATA:1,2019-01-06T22:48:00Z,30.3085,-88.1395,70.14,1111122 
DISL,ioos:station:DISL:CATA:1,2019-01-06T23:48:00Z,30.3085,-88.1395,70.86,1111122 
DISL,ioos:station:DISL:CATA:1,2019-01-07T00:48:00Z,30.3085,-88.1395,71.81,1111122 
DISL,ioos:station:DISL:CATA:1,2019-01-07T01:48:00Z,30.3085,-88.1395,75.03,1111122 
DISL,ioos:station:DISL:CATA:1,2019-01-07T02:48:00Z,30.3085,-88.1395,75.99,1111122 
DISL,ioos:station:DISL:CATA:1,2019-01-07T03:48:00Z,30.3085,-88.1395,80.3,1111122 
DISL,ioos:station:DISL:CATA:1,2019-01-07T04:48:00Z,30.3085,-88.1395,81.6,1111122 
DISL,ioos:station:DISL:CATA:1,2019-01-07T05:48:00Z,30.3085,-88.1395,90.2,1111122 
DISL,ioos:station:DISL:CATA:1,2019-01-07T06:48:00Z,30.3085,-88.1395,93.0,1111122 
DISL,ioos:station:DISL:CATA:1,2019-01-07T15:48:00Z,30.3085,-88.1395,91.8,1111122 
DISL,ioos:station:DISL:CATA:1,2019-01-07T16:48:00Z,30.3085,-88.1395,90.9,1111122 
DISL,ioos:station:DISL:CATA:1,2019-01-07T17:48:00Z,30.3085,-88.1395,90.3,1111122 
DISL,ioos:station:DISL:CATA:1,2019-01-07T18:48:00Z,30.3085,-88.1395,86.2,1111122 
DISL,ioos:station:DISL:CATA:1,2019-01-07T19:48:00Z,30.3085,-88.1395,75.02,1111122 
DISL,ioos:station:DISL:CATA:1,2019-01-07T20:48:00Z,30.3085,-88.1395,76.39,1111122 
DISL,ioos:station:DISL:CATA:1,2019-01-07T21:48:00Z,30.3085,-88.1395,75.25,1111122 
DISL,ioos:station:DISL:CATA:1,2019-01-07T22:48:00Z,30.3085,-88.1395,82.9,1111122 
DISL,ioos:station:DISL:CATA:1,2019-01-07T23:48:00Z,30.3085,-88.1395,85.7,1111122 
DISL,ioos:station:DISL:CATA:1,2019-01-08T00:48:00Z,30.3085,-88.1395,87.0,1111122 
DISL,ioos:station:DISL:CATA:1,2019-01-08T01:48:00Z,30.3085,-88.1395,87.4,1111122 
DISL,ioos:station:DISL:CATA:1,2019-01-08T02:48:00Z,30.3085,-88.1395,89.8,1111122 
DISL,ioos:station:DISL:CATA:1,2019-01-08T03:48:00Z,30.3085,-88.1395,89.5,1111122 
DISL,ioos:station:DISL:CATA:1,2019-01-08T04:48:00Z,30.3085,-88.1395,90.7,1111122 
DISL,ioos:station:DISL:CATA:1,2019-01-08T05:48:00Z,30.3085,-88.1395,87.5,1111122 
DISL,ioos:station:DISL:CATA:1,2019-01-08T06:48:00Z,30.3085,-88.1395,91.3,1111122 
DISL,ioos:station:DISL:CATA:1,2019-01-08T07:48:00Z,30.3085,-88.1395,93.1,1111122 
DISL,ioos:station:DISL:CATA:1,2019-01-08T08:48:00Z,30.3085,-88.1395,93.2,1111122 
DISL,ioos:station:DISL:CATA:1,2019-01-08T09:48:00Z,30.3085,-88.1395,95.3,1111122 
DISL,ioos:station:DISL:CATA:1,2019-01-08T10:48:00Z,30.3085,-88.1395,96.4,1111122 
DISL,ioos:station:DISL:CATA:1,2019-01-08T11:48:00Z,30.3085,-88.1395,96.1,1111122 
DISL,ioos:station:DISL:CATA:1,2019-01-08T12:48:00Z,30.3085,-88.1395,95.0,1111122 
DISL,ioos:station:DISL:CATA:1,2019-01-08T13:48:00Z,30.3085,-88.1395,95.5,1111122 
DISL,ioos:station:DISL:CATA:1,2019-01-08T14:48:00Z,30.3085,-88.1395,93.6,1111122 
DISL,ioos:station:DISL:CATA:1,2019-01-08T15:48:00Z,30.3085,-88.1395,92.9,1111122 
DISL,ioos:station:DISL:CATA:1,2019-01-08T16:48:00Z,30.3085,-88.1395,90.5,1111122 
DISL,ioos:station:DISL:CATA:1,2019-01-08T17:48:00Z,30.3085,-88.1395,89.4,1111122 
DISL,ioos:station:DISL:CATA:1,2019-01-08T18:48:00Z,30.3085,-88.1395,88.8,1111122 
DISL,ioos:station:DISL:CATA:1,2019-01-08T19:48:00Z,30.3085,-88.1395,87.2,1111122 
DISL,ioos:station:DISL:CATA:1,2019-01-08T20:48:00Z,30.3085,-88.1395,87.0,1111122 
DISL,ioos:station:DISL:CATA:1,2019-01-08T21:48:00Z,30.3085,-88.1395,89.2,1111122 
DISL,ioos:station:DISL:CATA:1,2019-01-08T22:48:00Z,30.3085,-88.1395,90.7,1111122 
DISL,ioos:station:DISL:CATA:1,2019-01-08T23:48:00Z,30.3085,-88.1395,91.7,1111122 
DISL,ioos:station:DISL:CATA:1,2019-01-09T00:48:00Z,30.3085,-88.1395,93.0,1111122 
DISL,ioos:station:DISL:CATA:1,2019-01-09T01:48:00Z,30.3085,-88.1395,94.6,1111122 
DISL,ioos:station:DISL:CATA:1,2019-01-09T02:48:00Z,30.3085,-88.1395,94.2,1111122 
DISL,ioos:station:DISL:CATA:1,2019-01-09T03:48:00Z,30.3085,-88.1395,94.6,1111122 
DISL,ioos:station:DISL:CATA:1,2019-01-09T04:48:00Z,30.3085,-88.1395,94.9,1111122 
DISL,ioos:station:DISL:CATA:1,2019-01-09T05:48:00Z,30.3085,-88.1395,84.5,1111122 
DISL,ioos:station:DISL:CATA:1,2019-01-09T06:48:00Z,30.3085,-88.1395,84.3,1111122 
DISL,ioos:station:DISL:CATA:1,2019-01-09T07:48:00Z,30.3085,-88.1395,77.8,1111122 
DISL,ioos:station:DISL:CATA:1,2019-01-09T08:48:00Z,30.3085,-88.1395,64.81,1111122 
DISL,ioos:station:DISL:CATA:1,2019-01-09T09:48:00Z,30.3085,-88.1395,54.66,1111122 
DISL,ioos:station:DISL:CATA:1,2019-01-09T10:48:00Z,30.3085,-88.1395,52.71,1111122 
DISL,ioos:station:DISL:CATA:1,2019-01-09T11:48:00Z,30.3085,-88.1395,52.4,1111122 
DISL,ioos:station:DISL:CATA:1,2019-01-09T12:48:00Z,30.3085,-88.1395,53.36,1111122 
DISL,ioos:station:DISL:CATA:1,2019-01-09T13:47:00Z,30.3085,-88.1395,52.74,1111122 
DISL,ioos:station:DISL:CATA:1,2019-01-09T14:47:00Z,30.3085,-88.1395,42.56,1111122 
DISL,ioos:station:DISL:CATA:1,2019-01-09T17:47:00Z,30.3085,-88.1395,30.79,1111122 
DISL,ioos:station:DISL:CATA:1,2019-01-09T18:47:00Z,30.3085,-88.1395,27.94,1111122 
DISL,ioos:station:DISL:CATA:1,2019-01-09T19:47:00Z,30.3085,-88.1395,25.13,1111122 
DISL,ioos:station:DISL:CATA:1,2019-01-09T20:47:00Z,30.3085,-88.1395,34.38,1111122 
DISL,ioos:station:DISL:CATA:1,2019-01-09T21:47:00Z,30.3085,-88.1395,30.31,1111122 
DISL,ioos:station:DISL:CATA:1,2019-01-09T22:47:00Z,30.3085,-88.1395,30.51,1111122 
DISL,ioos:station:DISL:CATA:1,2019-01-09T23:47:00Z,30.3085,-88.1395,38.82,1111122 
DISL,ioos:station:DISL:CATA:1,2019-01-10T00:47:00Z,30.3085,-88.1395,38.0,1111122 
DISL,ioos:station:DISL:CATA:1,2019-01-10T01:47:00Z,30.3085,-88.1395,41.63,1111122 
DISL,ioos:station:DISL:CATA:1,2019-01-10T02:48:00Z,30.3085,-88.1395,46.1,1111122 
DISL,ioos:station:DISL:CATA:1,2019-01-10T03:48:00Z,30.3085,-88.1395,49.19,1111122 
DISL,ioos:station:DISL:CATA:1,2019-01-10T04:48:00Z,30.3085,-88.1395,54.03,1111122 
DISL,ioos:station:DISL:CATA:1,2019-01-10T05:48:00Z,30.3085,-88.1395,53.38,1111122 
DISL,ioos:station:DISL:CATA:1,2019-01-10T06:48:00Z,30.3085,-88.1395,46.39,1111122 
DISL,ioos:station:DISL:CATA:1,2019-01-10T07:48:00Z,30.3085,-88.1395,45.74,1111122 
DISL,ioos:station:DISL:CATA:1,2019-01-10T08:48:00Z,30.3085,-88.1395,48.72,1111122 
DISL,ioos:station:DISL:CATA:1,2019-01-10T09:48:00Z,30.3085,-88.1395,46.91,1111122 
DISL,ioos:station:DISL:CATA:1,2019-01-10T10:48:00Z,30.3085,-88.1395,51.54,1111122 
DISL,ioos:station:DISL:CATA:1,2019-01-10T11:48:00Z,30.3085,-88.1395,55.11,1111122 
DISL,ioos:station:DISL:CATA:1,2019-01-10T12:48:00Z,30.3085,-88.1395,56.76,1111122 
DISL,ioos:station:DISL:CATA:1,2019-01-10T13:48:00Z,30.3085,-88.1395,56.45,1111122 
DISL,ioos:station:DISL:CATA:1,2019-01-10T14:48:00Z,30.3085,-88.1395,50.33,1111122 
DISL,ioos:station:DISL:CATA:1,2019-01-10T15:48:00Z,30.3085,-88.1395,48.89,1111122 
DISL,ioos:station:DISL:CATA:1,2019-01-10T16:48:00Z,30.3085,-88.1395,46.4,1111122 
DISL,ioos:station:DISL:CATA:1,2019-01-10T17:48:00Z,30.3085,-88.1395,45.85,1111122 
DISL,ioos:station:DISL:CATA:1,2019-01-10T18:48:00Z,30.3085,-88.1395,49.14,1111122 
DISL,ioos:station:DISL:CATA:1,2019-01-10T19:48:00Z,30.3085,-88.1395,45.37,1111122 
DISL,ioos:station:DISL:CATA:1,2019-01-10T20:48:00Z,30.3085,-88.1395,45.11,1111122 
DISL,ioos:station:DISL:CATA:1,2019-01-10T21:48:00Z,30.3085,-88.1395,43.44,1111122 
DISL,ioos:station:DISL:CATA:1,2019-01-10T22:48:00Z,30.3085,-88.1395,47.53,1111122 
DISL,ioos:station:DISL:CATA:1,2019-01-10T23:48:00Z,30.3085,-88.1395,45.16,1111122 
DISL,ioos:station:DISL:CATA:1,2019-01-11T00:48:00Z,30.3085,-88.1395,50.96,1111122 
DISL,ioos:station:DISL:CATA:1,2019-01-11T01:48:00Z,30.3085,-88.1395,45.28,1111122 
DISL,ioos:station:DISL:CATA:1,2019-01-11T02:48:00Z,30.3085,-88.1395,45.45,1111122 
DISL,ioos:station:DISL:CATA:1,2019-01-11T03:48:00Z,30.3085,-88.1395,51.9,1111122 
DISL,ioos:station:DISL:CATA:1,2019-01-11T04:48:00Z,30.3085,-88.1395,52.56,1111122 
DISL,ioos:station:DISL:CATA:1,2019-01-11T05:48:00Z,30.3085,-88.1395,52.69,1111122 
DISL,ioos:station:DISL:CATA:1,2019-01-11T06:48:00Z,30.3085,-88.1395,60.27,1111122 
DISL,ioos:station:DISL:CATA:1,2019-01-11T07:48:00Z,30.3085,-88.1395,60.87,1111122 
DISL,ioos:station:DISL:CATA:1,2019-01-11T08:48:00Z,30.3085,-88.1395,51.71,1111122 
DISL,ioos:station:DISL:CATA:1,2019-01-11T09:48:00Z,30.3085,-88.1395,49.82,1111122 
DISL,ioos:station:DISL:CATA:1,2019-01-11T10:48:00Z,30.3085,-88.1395,53.59,1111122 
DISL,ioos:station:DISL:CATA:1,2019-01-11T11:48:00Z,30.3085,-88.1395,55.17,1111122 
DISL,ioos:station:DISL:CATA:1,2019-01-11T12:48:00Z,30.3085,-88.1395,56.03,1111122 
DISL,ioos:station:DISL:CATA:1,2019-01-11T13:48:00Z,30.3085,-88.1395,60.77,1111122 
DISL,ioos:station:DISL:CATA:1,2019-01-11T14:48:00Z,30.3085,-88.1395,61.58,1111122 
DISL,ioos:station:DISL:CATA:1,2019-01-11T15:48:00Z,30.3085,-88.1395,63.62,1111122 
DISL,ioos:station:DISL:CATA:1,2019-01-11T16:48:00Z,30.3085,-88.1395,67.22,1111122 
DISL,ioos:station:DISL:CATA:1,2019-01-11T17:48:00Z,30.3085,-88.1395,66.63,1111122 
DISL,ioos:station:DISL:CATA:1,2019-01-11T18:48:00Z,30.3085,-88.1395,63.68,1111122 
DISL,ioos:station:DISL:CATA:1,2019-01-11T19:48:00Z,30.3085,-88.1395,66.52,1111122 
DISL,ioos:station:DISL:CATA:1,2019-01-11T20:48:00Z,30.3085,-88.1395,68.05,1111122 
DISL,ioos:station:DISL:CATA:1,2019-01-11T21:48:00Z,30.3085,-88.1395,68.74,1111122 
DISL,ioos:station:DISL:CATA:1,2019-01-11T22:48:00Z,30.3085,-88.1395,73.74,1111122 
DISL,ioos:station:DISL:CATA:1,2019-01-11T23:47:00Z,30.3085,-88.1395,77.61,1111122 
DISL,ioos:station:DISL:CATA:1,2019-01-12T00:47:00Z,30.3085,-88.1395,76.78,1111122 
DISL,ioos:station:DISL:CATA:1,2019-01-12T01:47:00Z,30.3085,-88.1395,75.96,1111122 
DISL,ioos:station:DISL:CATA:1,2019-01-12T02:47:00Z,30.3085,-88.1395,77.98,1111122 
DISL,ioos:station:DISL:CATA:1,2019-01-12T03:47:00Z,30.3085,-88.1395,82.3,1111122 
DISL,ioos:station:DISL:CATA:1,2019-01-12T04:47:00Z,30.3085,-88.1395,83.0,1111122 
DISL,ioos:station:DISL:CATA:1,2019-01-12T05:47:00Z,30.3085,-88.1395,85.0,1111122 
DISL,ioos:station:DISL:CATA:1,2019-01-12T06:47:00Z,30.3085,-88.1395,85.5,1111122 
DISL,ioos:station:DISL:CATA:1,2019-01-12T07:47:00Z,30.3085,-88.1395,84.0,1111122 
DISL,ioos:station:DISL:CATA:1,2019-01-12T08:47:00Z,30.3085,-88.1395,81.3,1111122 
DISL,ioos:station:DISL:CATA:1,2019-01-12T09:47:00Z,30.3085,-88.1395,80.5,1111122 
DISL,ioos:station:DISL:CATA:1,2019-01-12T10:47:00Z,30.3085,-88.1395,81.3,1111122 
DISL,ioos:station:DISL:CATA:1,2019-01-12T11:47:00Z,30.3085,-88.1395,82.2,1111122 
DISL,ioos:station:DISL:CATA:1,2019-01-12T12:47:00Z,30.3085,-88.1395,84.1,1111122 
DISL,ioos:station:DISL:CATA:1,2019-01-12T13:47:00Z,30.3085,-88.1395,85.1,1111122 
DISL,ioos:station:DISL:CATA:1,2019-01-12T14:47:00Z,30.3085,-88.1395,85.9,1111122 
DISL,ioos:station:DISL:CATA:1,2019-01-12T15:47:00Z,30.3085,-88.1395,83.2,1111122 
DISL,ioos:station:DISL:CATA:1,2019-01-12T16:47:00Z,30.3085,-88.1395,79.2,1111122 
DISL,ioos:station:DISL:CATA:1,2019-01-12T17:47:00Z,30.3085,-88.1395,84.4,1111122 
DISL,ioos:station:DISL:CATA:1,2019-01-12T18:47:00Z,30.3085,-88.1395,79.81,1111122 
DISL,ioos:station:DISL:CATA:1,2019-01-12T19:47:00Z,30.3085,-88.1395,80.4,1111122 
DISL,ioos:station:DISL:CATA:1,2019-01-12T20:47:00Z,30.3085,-88.1395,84.3,1111122 
DISL,ioos:station:DISL:CATA:1,2019-01-12T21:47:00Z,30.3085,-88.1395,86.7,1111122 
DISL,ioos:station:DISL:CATA:1,2019-01-12T22:47:00Z,30.3085,-88.1395,89.3,1111122 
DISL,ioos:station:DISL:CATA:1,2019-01-12T23:47:00Z,30.3085,-88.1395,90.9,1111122 
DISL,ioos:station:DISL:CATA:1,2019-01-13T00:47:00Z,30.3085,-88.1395,88.2,1111122 
DISL,ioos:station:DISL:CATA:1,2019-01-13T01:47:00Z,30.3085,-88.1395,94.5,1111122 
DISL,ioos:station:DISL:CATA:1,2019-01-13T02:47:00Z,30.3085,-88.1395,95.7,1111122 
DISL,ioos:station:DISL:CATA:1,2019-01-13T03:47:00Z,30.3085,-88.1395,97.0,1111122 
DISL,ioos:station:DISL:CATA:1,2019-01-13T04:47:00Z,30.3085,-88.1395,97.8,1111122 
DISL,ioos:station:DISL:CATA:1,2019-01-13T05:47:00Z,30.3085,-88.1395,98.1,1111122 
DISL,ioos:station:DISL:CATA:1,2019-01-13T06:47:00Z,30.3085,-88.1395,98.5,1111122 
DISL,ioos:station:DISL:CATA:1,2019-01-13T07:47:00Z,30.3085,-88.1395,98.9,1111122 
DISL,ioos:station:DISL:CATA:1,2019-01-13T08:47:00Z,30.3085,-88.1395,99.1,1111122 
DISL,ioos:station:DISL:CATA:1,2019-01-13T09:47:00Z,30.3085,-88.1395,99.3,1111122 
DISL,ioos:station:DISL:CATA:1,2019-01-13T10:47:00Z,30.3085,-88.1395,99.2,1111122 
DISL,ioos:station:DISL:CATA:1,2019-01-13T11:47:00Z,30.3085,-88.1395,99.0,1111122 
DISL,ioos:station:DISL:CATA:1,2019-01-13T12:47:00Z,30.3085,-88.1395,79.7,1111122 
DISL,ioos:station:DISL:CATA:1,2019-01-13T13:47:00Z,30.3085,-88.1395,85.7,1111122 
DISL,ioos:station:DISL:CATA:1,2019-01-13T14:47:00Z,30.3085,-88.1395,81.8,1111122 
DISL,ioos:station:DISL:CATA:1,2019-01-13T15:47:00Z,30.3085,-88.1395,75.41,1111122 
DISL,ioos:station:DISL:CATA:1,2019-01-13T16:47:00Z,30.3085,-88.1395,70.5,1111122 
DISL,ioos:station:DISL:CATA:1,2019-01-13T17:47:00Z,30.3085,-88.1395,66.92,1111122 
DISL,ioos:station:DISL:CATA:1,2019-01-13T18:47:00Z,30.3085,-88.1395,61.95,1111122 
DISL,ioos:station:DISL:CATA:1,2019-01-13T19:47:00Z,30.3085,-88.1395,66.37,1111122 
DISL,ioos:station:DISL:CATA:1,2019-01-13T20:47:00Z,30.3085,-88.1395,68.06,1111122 
DISL,ioos:station:DISL:CATA:1,2019-01-13T21:47:00Z,30.3085,-88.1395,70.4,1111122 
DISL,ioos:station:DISL:CATA:1,2019-01-13T22:47:00Z,30.3085,-88.1395,69.14,1111122 
DISL,ioos:station:DISL:CATA:1,2019-01-13T23:47:00Z,30.3085,-88.1395,67.54,1111122 
DISL,ioos:station:DISL:CATA:1,2019-01-14T00:47:00Z,30.3085,-88.1395,69.67,1111122 
DISL,ioos:station:DISL:CATA:1,2019-01-14T01:47:00Z,30.3085,-88.1395,69.06,1111122 
DISL,ioos:station:DISL:CATA:1,2019-01-14T02:47:00Z,30.3085,-88.1395,70.15,1111122 
DISL,ioos:station:DISL:CATA:1,2019-01-14T03:47:00Z,30.3085,-88.1395,73.21,1111122 
DISL,ioos:station:DISL:CATA:1,2019-01-14T04:47:00Z,30.3085,-88.1395,75.3,1111122 
DISL,ioos:station:DISL:CATA:1,2019-01-14T05:47:00Z,30.3085,-88.1395,78.36,1111122 
DISL,ioos:station:DISL:CATA:1,2019-01-14T06:47:00Z,30.3085,-88.1395,76.23,1111122 
DISL,ioos:station:DISL:CATA:1,2019-01-14T07:47:00Z,30.3085,-88.1395,72.63,1111122 